Tracking 18945 objects as of 19-Jan-2018
HD Live streaming from Space Station
objects crossing your sky now

FLOCK 3M 4

Track FLOCK 3M 4 now!
10-day predictions
FLOCK 3M 4 is classified as:


NORAD ID: 42997
Int'l Code: 2017-068L
Perigee: 506.9 km
Apogee: 528.4 km
Inclination: 97.4 °
Period: 94.8 minutes
Semi major axis: 6888 km
RCS: Unknown
Launch date: October 31, 2017
Source: United States (US)
Launch site: AIR FORCE WESTERN TEST RANGE (AFWTR)
aabbcc
Your satellite tracking list
Your tracking list is empty




NASA's NSSDC Master Catalog

Two Line Element Set (TLE):
1 42997U 17068L   18018.89648497 +.00001973 +00000-0 +98775-4 0  9996
2 42997 097.3617 135.9852 0015602 314.7700 045.2264 15.18460527011986
Source of the keplerian elements: AFSPC